Total_Precipitation_Accumulation
0.00 0.00 0.00 0.00 0.00 0.00 0.00 0.00 0.00 0.00 0.00 0.00 0.00 0.00 0.00 0.00 0.00 0.00 0.00 0.00 0.00 0.00
0.00 0.00 0.00 0.00 0.00 0.00 0.00 0.00 0.00 0.00 0.00 0.00 0.00 0.00 0.00 0.00 0.00 0.00 0.00 0.00 0.00 0.00
0.00 0.00 0.00 0.00 0.00 0.00 0.00 0.00 0.00 0.00 0.00 0.00 0.00 0.00 0.00 0.00 0.00 0.00 0.00 0.00 0.00 0.00
0.00 0.00 0.00 0.00 0.00 0.00 0.00 0.00 0.00 0.00 0.00 0.00 0.00 0.00 0.00 0.00 0.00 0.00 0.00 0.00 0.00 0.00
0.00 0.00 0.00 0.00 0.00 0.00 0.00 0.00 0.00 0.00 0.00 0.00 0.00 0.00 0.00 0.00 0.00 0.00 0.00 0.00 0.00 0.00
0.00 0.00 0.00 0.00 0.00 0.00 0.00 0.00 0.00 0.00 0.00 0.00 0.00 0.00 0.00 0.00 0.00 0.00 0.00 0.00 0.00 0.00
0.00 0.00 0.00 0.00 0.00 0.00 0.00 0.00 0.00 0.00 0.00 0.00 0.00 0.01 0.00 0.01 0.00 0.00 0.00 0.00 0.00 0.00
0.00 0.00 0.00 0.00 0.01 0.00 0.00 0.00 0.00 0.00 0.00 0.01 0.01 0.01 0.01 0.01 0.02 0.00 0.00 0.00 0.00 0.00
0.00 0.00 0.00 0.00 0.02 0.01 0.00 0.01 0.01 0.02 0.02 0.05 0.04 0.03 0.02 0.04 0.02 0.04 0.02 0.06 0.06 0.03
0.00 0.00 0.00 0.00 0.00 0.00 0.01 0.05 0.04 0.05 0.06 0.12 0.11 0.11 0.15 0.14 0.04 0.06 0.06 0.07 0.06 0.02
0.00 0.00 0.00 0.00 0.00 0.00 0.00 0.04 0.04 0.04 0.10 0.22 0.29 0.28 0.09 0.07 0.05 0.02 0.02 0.04 0.04 0.06
0.00 0.00 0.00 0.00 0.00 0.01 0.02 0.13 0.29 0.53 0.51 0.41 0.28 0.13 0.07 0.04 0.02 0.02 0.02 0.02 0.06 0.11
0.00 0.00 0.00 0.04 0.04 0.17 0.38 0.32 0.17 0.14 0.11 0.08 0.07 0.11 0.07 0.03 0.01 0.01 0.04 0.09 0.06 0.23
0.00 0.01 0.11 0.18 0.17 0.22 0.24 0.06 0.03 0.06 0.07 0.09 0.07 0.08 0.04 0.00 0.00 0.00 0.03 0.03 0.11 0.05